Location: ???? ?????
(30.0052°N, 31.2891°E)
Time: 20:04:11
(UTC+00:00)

Iridium 16 - Pass Details

Date: 04 February 2023
Orbit: 766 x 768 km, 86.4° (Epoch: 20 March)

Event Time Altitude Azimuth Distance (km) Brightness Sun altitude
Rises 03:54:35 0° 217° (SW) 3,221 8.5 -11.1°
Reaches altitude 10° 03:57:34 10° 234° (SW) 2,299 7.6 -10.4°
Maximum altitude 04:01:09 19° 279° (W) 1,767 6.7 -9.7°
Drops below altitude 10° 04:04:45 10° 323° (NW) 2,309 7.5 -8.9°
Sets 04:07:47 0° 342° (NNW) 3,240 8.4 -8.3°
